This is the latest recevied weather packets stored in our database for station/object N5JXS. If no packets are shown the sender has not sent any weather packets the latest 10 day(s).
| Time | Temp. | Humidity | Pressure | Rain* | Wind** | Luminosity | Snow |
|---|---|---|---|---|---|---|---|
| 1788391337 | 26.67° C | 25% | 1022.7 hPa | 0 mm | - | 52 W/m² | - |
| 1788391032 | 27.22° C | 24% | 1022.5 hPa | 0 mm | - | 45 W/m² | - |
| 1788390732 | 27.22° C | 24% | 1022.7 hPa | 0 mm | - | 45 W/m² | - |
| 1788390427 | 26.67° C | 25% | 1022.6 hPa | 0 mm | - | 48 W/m² | - |
| 1788390126 | 27.22° C | 24% | 1022.7 hPa | 0 mm | - | 66 W/m² | - |
| 1788389821 | 27.22° C | 24% | 1022.7 hPa | 0 mm | - | 46 W/m² | - |
| 1788389521 | 27.22° C | 25% | 1022.7 hPa | 0 mm | - | 49 W/m² | - |
| 1788389219 | 27.78° C | 25% | 1022.6 hPa | 0 mm | - | 89 W/m² | - |
| 1788388915 | 27.78° C | 24% | 1022.5 hPa | 0 mm | - | 56 W/m² | - |
| 1788388611 | 27.78° C | 23% | 1022.7 hPa | 0 mm | - | 89 W/m² | - |
| 1788388310 | 27.78° C | 23% | 1022.6 hPa | 0 mm | - | 67 W/m² | - |
| 1788388009 | 27.78° C | 25% | 1022.4 hPa | 0 mm | - | 76 W/m² | - |
| 1788387708 | 28.33° C | 24% | 1022.7 hPa | 0 mm | - | 65 W/m² | - |
| 1788387403 | 28.33° C | 24% | 1022.7 hPa | 0 mm | - | 76 W/m² | - |
| 1788387098 | 27.78° C | 25% | 1022.6 hPa | 0 mm | - | 99 W/m² | - |
| 1788386793 | 28.33° C | 24% | 1022.6 hPa | 0 mm | - | 107 W/m² | - |
| 1788386493 | 28.33° C | 24% | 1022.7 hPa | 0 mm | - | 48 W/m² | - |
| 1788386189 | 28.33° C | 25% | 1022.9 hPa | 0 mm | - | 65 W/m² | - |
| 1788385884 | 27.78° C | 25% | 1022.9 hPa | 0 mm | - | 52 W/m² | - |
| 1788385579 | 27.78° C | 25% | 1023 hPa | 0 mm | - | 516 W/m² | - |
| 1788385278 | 26.11° C | 27% | 1023.2 hPa | 0 mm | - | 581 W/m² | - |
| 1788384974 | 26.67° C | 26% | 1023.1 hPa | 0 mm | - | 115 W/m² | - |
| 1788384673 | 27.78° C | 25% | 1023.4 hPa | 0 mm | - | 77 W/m² | - |
| 1788384369 | 28.33° C | 24% | 1023.5 hPa | 0 mm | - | 148 W/m² | - |
| 1788384065 | 27.78° C | 24% | 1023.4 hPa | 0 mm | - | 580 W/m² | - |
* Rain latest hour (hover to see other rain measurements)
** Current wind speed in m/s (hover to see current wind gust speed)